Overview Statistics Trail Chart Weather Telemetry Raw packets
 

This is the latest recevied weather packets stored in our database for station/object DG2GGP-11. If no packets are shown the sender has not sent any weather packets the latest 10 day(s).

<< 4 5 6 7 8 9 10 >>
Time Temp. Humidity Pressure Rain* Wind** Luminosity Snow
1788510002 23.33° C 56% 1021.8 hPa 0 mm - 39 W/m² -
1788509402 23.33° C 56% 1022 hPa 0 mm - 39 W/m² -
1788508802 22.22° C 57% 1021.9 hPa 0 mm - 38 W/m² -
1788508202 22.22° C 57% 1022.1 hPa 0 mm - 37 W/m² -
1788507602 21.67° C 58% 1022.1 hPa 0 mm - 36 W/m² -
1788507002 22.22° C 58% 1022.1 hPa 0 mm - 35 W/m² -
1788506402 22.22° C 58% 1022.2 hPa 0 mm - 34 W/m² -
1788505802 21.11° C 58% 1022.3 hPa 0 mm - 32 W/m² -
1788505202 21.11° C 60% 1022.3 hPa 0 mm - 31 W/m² -
1788504602 20.56° C 61% 1022.4 hPa 0 mm - 30 W/m² -
1788504002 19.44° C 63% 1022.5 hPa 0 mm - 28 W/m² -
1788503402 18.89° C 66% 1022.5 hPa 0 mm - 27 W/m² -
1788502802 17.78° C 68% 1022.6 hPa 0 mm - 25 W/m² -
1788502202 16.67° C 72% 1022.6 hPa 0 mm - 23 W/m² -
1788501602 15° C 75% 1022.5 hPa 0 mm - 20 W/m² -
1788501002 13.89° C 79% 1022.6 hPa 0 mm - 17 W/m² -
1788500402 13.33° C 79% 1022.7 hPa 0 mm - 3 W/m² -
1788499802 12.78° C 80% 1022.7 hPa 0 mm - 2 W/m² -
1788499202 12.78° C 80% 1022.8 hPa 0 mm - 1 W/m² -
1788498602 12.78° C 79% 1022.8 hPa 0 mm - 0 W/m² -
1788498002 13.33° C 79% 1022.7 hPa 0 mm - 0 W/m² -
1788497402 13.33° C 79% 1022.8 hPa 0 mm - 0 W/m² -
1788496802 13.33° C 79% 1022.7 hPa 0 mm - 0 W/m² -
1788496202 13.33° C 78% 1022.7 hPa 0 mm - 0 W/m² -
1788495602 13.33° C 78% 1022.8 hPa 0 mm - 0 W/m² -

* Rain latest hour (hover to see other rain measurements)
** Current wind speed in m/s (hover to see current wind gust speed)